sat.trackr.live / text

‹ back to catalog

STARLINK-32204

NORAD 60584 · 2024-150B

PAYLOAD ACTIVE UNKNOWN

§ Identity

Operator
Country
US
Launch date
2024-08-20
Launch site
AFETR
Launch vehicle
Mass (kg)
RCS (m²)

Purposes: comms

External: N2YO · Heavens-Above · Gunter

§ Orbital elements

Epoch: 2026-09-21T20:17:30.552864Z

Period
93.85 min
Inclination
53.1595°
Eccentricity
0.0001482
Mean motion
15.34384676 rev/d
Perigee alt
461.7 km
Apogee alt
463.8 km
Semi-major
6,840.9 km
B*
8.6927e-5
RAAN
111.6520°
Arg perigee
73.4861°
Mean anomaly
286.6304°
Rev number
11,813

§ Raw data

STARLINK-322041 60584U 24150B   26264.84549251  .00002560  00000+0  86927-4 0  99912 60584  53.1595 111.6520 0001482  73.4861 286.6304 15.34384676118133

JSON: /api/v1/satellites/60584 · /tle

For live sub-satellite position, see the globe view (requires WebGL).

§ Visibility from observer

Set your observer location to see the next 7 days of passes ≥ 10°. The values pass through the URL so the page stays shareable.

No JS? Fill the form by hand. The geolocation button needs JavaScript.